DW5963 Weather Reports


time (UTC)temp
F
wind
direction
speed
knots
gust
knots
rain 1hr
in
rain 24hr
in
rain mn
in
humidity
%
barometer
mb
20260831034102 56 360 2.6 0.0 0.00 0.00 0.05 79 1007.9
20260831033600 56 360 3.5 0.0 0.00 0.00 0.05 78 1007.9
20260831033110 56 360 3.5 0.0 0.00 0.00 0.05 78 1007.9
20260831032601 57 360 3.5 0.0 0.00 0.00 0.05 77 1008.0
20260831032059 57 360 4.3 0.0 0.00 0.00 0.05 77 1007.9
20260831031557 57 360 3.5 0.0 0.00 0.00 0.05 76 1007.8
20260831031055 57 360 2.6 0.0 0.00 0.00 0.05 76 1007.8
20260831030556 58 360 1.7 0.0 0.00 0.00 0.05 76 1007.7
20260831030056 58 360 1.7 0.0 0.00 0.00 0.05 75 1007.7
20260831025552 58 360 1.7 0.0 0.00 0.00 0.05 75 1007.6
20260831025052 58 360 1.7 0.0 0.00 0.00 0.05 74 1007.4
20260831024550 59 360 2.6 0.0 0.00 0.00 0.05 73 1007.4
20260831024048 59 360 3.5 0.0 0.00 0.00 0.05 73 1007.2
20260831023551 60 360 3.5 0.0 0.00 0.00 0.05 73 1007.2
20260831023049 60 360 3.5 0.0 0.00 0.00 0.05 73 1007.3
20260831022548 60 360 3.5 0.0 0.00 0.00 0.05 73 1007.1
20260831022047 60 360 3.5 0.0 0.00 0.00 0.05 71 1007.1
20260831021546 61 360 3.5 0.0 0.00 0.00 0.05 71 1007.1
20260831021046 61 360 4.3 0.0 0.00 0.00 0.05 70 1007.2
20260831020545 62 360 4.3 0.0 0.00 0.00 0.05 70 1007.0
20260831020104 62 360 5.2 0.0 0.00 0.00 0.05 69 1006.9
20260831015545 63 360 6.1 0.0 0.00 0.00 0.05 69 1006.9
20260831015045 63 360 6.1 0.0 0.00 0.00 0.05 69 1006.7
20260831014544 64 360 5.2 0.0 0.00 0.00 0.05 71 1006.7
20260831014044 64 360 4.3 0.0 0.00 0.00 0.05 71 1006.7
20260831013546 65 360 4.3 0.0 0.00 0.00 0.05 70 1006.8
20260831013044 65 360 4.3 0.0 0.00 0.00 0.05 70 1006.8
20260831012544 65 360 4.3 0.0 0.00 0.00 0.05 69 1006.8
20260831012043 66 360 4.3 0.0 0.00 0.00 0.05 68 1006.6
20260831011546 66 360 5.2 0.0 0.00 0.00 0.05 67 1006.7
20260831011043 66 360 6.1 0.0 0.00 0.00 0.05 67 1006.7
20260831010543 67 360 6.1 0.0 0.00 0.00 0.05 66 1006.7
20260831010044 67 360 6.1 0.0 0.00 0.00 0.05 64 1006.7
20260831005543 68 360 6.1 0.0 0.00 0.00 0.05 63 1006.7
20260831005043 68 360 6.1 0.0 0.00 0.00 0.05 63 1006.7
20260831004545 68 287 5.2 0.0 0.00 0.00 0.05 62 1006.6
20260831004043 68 360 4.3 0.0 0.00 0.00 0.05 62 1006.5
20260831003543 68 269 3.5 0.0 0.00 0.00 0.05 65 1006.3
20260831003042 67 360 3.5 0.0 0.00 0.00 0.05 65 1006.2
20260831002542 67 360 2.6 0.0 0.00 0.00 0.05 66 1006.4
20260831002042 66 360 2.6 0.0 0.00 0.00 0.05 67 1006.4
20260831001543 66 360 2.6 0.0 0.00 0.00 0.05 67 1006.4
20260831001045 66 360 3.5 0.0 0.00 0.00 0.05 67 1006.2
20260831000543 66 360 3.5 0.0 0.00 0.00 0.05 68 1006.0
20260831000046 65 360 4.3 0.0 0.00 0.00 0.05 69 1006.0
20260830235542 65 360 4.3 0.0 0.00 0.00 0.05 70 1006.2
20260830235043 65 360 3.5 0.0 0.00 0.00 0.05 70 1006.3
20260830234542 66 360 2.6 0.0 0.00 0.00 0.05 67 1005.5
20260830234043 67 360 3.5 0.0 0.00 0.00 0.05 65 1005.2
20260830233543 67 360 5.2 0.0 0.00 0.00 0.05 62 1006.7
20260830233045 67 360 6.1 0.0 0.00 0.00 0.05 62 1006.8
20260830232543 67 360 5.2 0.0 0.00 0.00 0.05 62 1007.0
20260830232041 67 360 5.2 0.0 0.00 0.00 0.05 63 1007.0
20260830231540 67 360 5.2 0.0 0.00 0.00 0.05 64 1007.0
20260830231039 67 360 5.2 0.0 0.00 0.00 0.05 64 1006.7
20260830230539 67 360 7.8 0.0 0.00 0.00 0.05 64 1006.4
20260830230038 67 360 9.6 0.0 0.00 0.00 0.05 64 1006.9
20260830225538 68 360 9.6 0.0 0.00 0.00 0.05 65 1007.0
20260830225038 68 360 10.4 0.0 0.00 0.00 0.05 64 1007.1
20260830224536 68 360 11.3 0.0 0.00 0.00 0.05 63 1006.7
20260830224037 69 360 13.9 0.0 0.00 0.00 0.05 63 1006.6
20260830223537 68 360 14.8 0.0 0.00 0.00 0.05 64 1006.6
20260830223036 68 360 13.9 0.0 0.00 0.00 0.05 63 1006.5
20260830222537 68 360 13.0 0.0 0.00 0.00 0.05 61 1005.9
20260830222033 69 360 13.9 0.0 0.00 0.00 0.05 61 1005.6
20260830221538 70 360 14.8 0.0 0.00 0.00 0.05 59 1005.6
20260830221031 69 360 16.5 0.0 0.00 0.00 0.05 62 1005.6
20260830220531 68 360 17.4 0.0 0.00 0.00 0.05 62 1005.2
20260830220030 68 360 17.4 0.0 0.00 0.00 0.05 61 1004.9
20260830215530 68 360 17.4 0.0 0.00 0.00 0.05 61 1004.6
20260830215030 68 360 18.2 0.0 0.00 0.00 0.05 64 1004.6
20260830214528 69 360 18.2 0.0 0.00 0.00 0.05 64 1004.6
20260830214029 69 360 16.5 0.0 0.00 0.00 0.05 70 1004.7
20260830213529 66 360 15.6 0.0 0.00 0.00 0.05 81 1004.7
20260830213035 66 360 14.8 0.0 0.00 0.00 0.05 81 1004.7
20260830212529 66 360 14.8 0.0 0.00 0.00 0.05 80 1005.1
20260830212028 68 360 13.9 0.0 0.00 0.00 0.05 77 1005.1
20260830211528 70 360 12.2 0.0 0.00 0.00 0.05 72 1005.0
20260830211031 72 360 10.4 0.0 0.00 0.00 0.05 68 1004.9
20260830210527 72 360 10.4 0.0 0.00 0.00 0.05 70 1004.8
20260830210027 71 360 11.3 0.0 0.00 0.00 0.05 70 1004.3
20260830205527 73 298 10.4 0.0 0.00 0.00 0.05 67 1004.0
20260830205027 73 284 10.4 0.0 0.00 0.00 0.05 66 1004.2
20260830204526 73 283 12.2 0.0 0.00 0.00 0.05 67 1004.2
20260830204026 73 294 11.3 0.0 0.00 0.00 0.05 66 1003.9
20260830203526 73 296 10.4 0.0 0.00 0.00 0.05 68 1003.8
20260830203026 73 300 10.4 0.0 0.00 0.00 0.05 67 1003.9
20260830202526 73 360 10.4 0.0 0.00 0.00 0.05 67 1003.8
20260830202026 73 360 11.3 0.0 0.00 0.00 0.05 67 1003.8
20260830201526 74 290 12.2 0.0 0.00 0.00 0.05 66 1003.8
20260830201027 75 281 12.2 0.0 0.00 0.00 0.05 65 1003.8
20260830200525 76 270 13.9 0.0 0.00 0.00 0.05 63 1003.8
20260830200025 77 285 13.9 0.0 0.00 0.00 0.05 63 1003.8
20260830195525 78 360 13.9 0.0 0.00 0.00 0.05 63 1003.8
20260830195025 77 268 14.8 0.0 0.00 0.00 0.05 63 1003.8
20260830194525 78 280 14.8 0.0 0.00 0.00 0.05 64 1003.8
20260830194025 77 282 13.9 0.0 0.00 0.00 0.05 66 1003.7
20260830193526 77 277 12.2 0.0 0.00 0.00 0.05 68 1003.7
20260830193024 77 303 11.3 0.0 0.00 0.00 0.05 69 1003.6
20260830192523 76 286 10.4 0.0 0.00 0.00 0.05 69 1003.8
20260830192027 76 292 11.3 0.0 0.00 0.00 0.05 69 1003.7
20260830191528 77 274 11.3 0.0 0.00 0.00 0.05 69 1003.6
20260830191023 78 310 12.2 0.0 0.00 0.00 0.05 67 1003.5
20260830190523 79 290 11.3 0.0 0.00 0.00 0.05 66 1003.4
20260830190025 79 332 10.4 0.0 0.00 0.00 0.05 66 1003.3
20260830185525 79 277 11.3 0.0 0.00 0.00 0.05 65 1003.3
20260830185022 80 360 11.3 0.0 0.00 0.00 0.05 64 1003.3
20260830184523 79 271 10.4 0.0 0.00 0.00 0.05 66 1003.3
20260830184022 78 279 8.7 0.0 0.00 0.00 0.05 67 1003.4
20260830183523 78 281 7.8 0.0 0.00 0.00 0.05 67 1003.4
20260830183024 78 291 7.8 0.0 0.00 0.00 0.05 68 1003.5
20260830182527 78 309 7.0 0.0 0.00 0.00 0.05 68 1003.3
20260830182026 79 351 7.0 0.0 0.00 0.00 0.05 65 1003.1
20260830181524 80 305 7.0 0.0 0.00 0.00 0.05 65 1003.0
20260830181030 79 305 6.1 0.0 0.00 0.00 0.05 66 1003.0
20260830180524 79 322 6.1 0.0 0.00 0.00 0.05 66 1003.2
20260830180023 79 313 6.1 0.0 0.00 0.00 0.05 66 1003.2
20260830175523 79 329 6.1 0.0 0.00 0.00 0.05 65 1003.1
20260830175022 79 334 7.0 0.0 0.00 0.00 0.05 67 1003.2
20260830174525 79 310 7.0 0.0 0.00 0.00 0.05 66 1003.2
20260830174022 79 325 7.0 0.0 0.00 0.00 0.05 65 1003.2
20260830173522 79 305 7.8 0.0 0.00 0.00 0.05 66 1003.4
20260830173020 78 332 7.8 0.0 0.00 0.00 0.05 67 1003.3
20260830172520 78 296 7.8 0.0 0.00 0.00 0.05 67 1003.3
20260830172020 78 275 7.0 0.0 0.00 0.00 0.05 66 1003.3
20260830171520 78 315 7.0 0.0 0.00 0.00 0.05 67 1003.2
20260830171021 78 279 7.0 0.0 0.00 0.00 0.05 66 1003.2
20260830170523 78 290 7.8 0.0 0.00 0.00 0.05 65 1003.1
20260830170037 79 293 8.7 0.0 0.00 0.00 0.05 66 1003.1
20260830165520 79 300 8.7 0.0 0.00 0.00 0.05 66 1003.0
20260830165023 79 323 7.8 0.0 0.00 0.00 0.05 65 1002.9
20260830164520 80 300 5.2 0.0 0.00 0.00 0.05 64 1002.9
20260830164020 79 285 4.3 0.0 0.00 0.00 0.05 61 1002.8
20260830163517 78 360 4.3 0.0 0.00 0.00 0.05 62 1002.9
20260830163017 78 360 3.5 0.0 0.00 0.00 0.05 63 1002.9
20260830162517 78 360 3.5 0.0 0.00 0.00 0.05 66 1002.9
20260830162017 77 360 4.3 0.0 0.00 0.00 0.05 66 1002.9
20260830161515 77 360 4.3 0.0 0.00 0.00 0.05 67 1003.0
20260830161014 77 360 4.3 0.0 0.00 0.00 0.05 67 1003.1
20260830160511 76 191 3.5 0.0 0.00 0.00 0.05 71 1003.1
20260830160010 76 360 3.5 0.0 0.00 0.00 0.05 73 1003.3
20260830155509 75 360 4.3 0.0 0.00 0.00 0.05 74 1003.3
20260830155010 75 360 4.3 0.0 0.00 0.00 0.05 75 1003.3
20260830154507 75 161 5.2 0.0 0.00 0.00 0.05 76 1003.2
20260830154006 74 184 4.3 0.0 0.00 0.00 0.05 77 1003.2
20260830153510 74 360 4.3 0.0 0.00 0.00 0.05 80 1003.0
20260830153005 74 178 4.3 0.0 0.00 0.00 0.05 80 1003.0
20260830152505 73 165 5.2 0.0 0.00 0.00 0.05 80 1003.1
20260830152004 73 360 5.2 0.0 0.00 0.00 0.05 80 1003.1
20260830151502 73 167 4.3 0.0 0.00 0.00 0.05 81 1003.1
20260830151100 72 360 4.3 0.0 0.00 0.00 0.05 81 1003.2
20260830151002 72 129 4.3 0.0 0.00 0.00 0.05 82 1003.2
20260830150600 72 360 5.2 0.0 0.00 0.00 0.05 82 1003.4
20260830145558 71 360 5.2 0.0 0.00 0.00 0.05 83 1003.4
20260830145057 71 360 6.1 0.0 0.00 0.00 0.05 82 1003.3
20260830144558 70 360 6.1 0.0 0.00 0.00 0.05 83 1003.3
20260830144058 70 360 6.1 0.0 0.00 0.00 0.05 83 1003.3
20260830143554 70 360 6.1 0.0 0.00 0.00 0.05 83 1003.2
20260830142554 69 135 4.3 0.0 0.00 0.00 0.05 83 1003.4
20260830142053 69 360 4.3 0.0 0.00 0.00 0.05 83 1003.5
20260830141553 68 360 4.3 0.0 0.00 0.00 0.05 83 1003.5
20260830141053 68 360 4.3 0.0 0.00 0.00 0.05 82 1003.6
20260830140552 68 360 4.3 0.0 0.00 0.00 0.05 84 1003.6
20260830135552 68 360 5.2 0.0 0.00 0.00 0.05 86 1003.5
20260830135052 67 360 4.3 0.0 0.00 0.00 0.05 86 1003.6
20260830134556 67 360 3.5 0.0 0.00 0.00 0.05 87 1003.6
20260830134051 65 360 0.9 0.0 0.00 0.00 0.05 88 1003.7
20260830133550 64 360 0.0 0.0 0.00 0.00 0.05 88 1003.6
20260830132552 63 360 0.0 0.0 0.00 0.00 0.05 87 1003.8
20260830132055 63 360 0.0 0.0 0.00 0.00 0.05 87 1003.7
20260830131558 63 360 0.0 0.0 0.00 0.00 0.05 87 1003.6
20260830131051 62 360 0.0 0.0 0.00 0.00 0.05 87 1003.6
20260830130553 62 360 0.0 0.0 0.00 0.00 0.05 87 1003.5
20260830130053 62 360 0.9 0.0 0.00 0.00 0.05 86 1003.6
20260830125551 62 360 1.7 0.0 0.00 0.00 0.05 86 1003.6
20260830125050 62 360 2.6 0.0 0.00 0.00 0.05 86 1003.7
20260830124551 62 360 2.6 0.0 0.00 0.00 0.05 87 1003.7
20260830124050 62 360 1.7 0.0 0.00 0.00 0.05 87 1003.6
20260830123551 62 360 0.0 0.0 0.00 0.00 0.05 87 1003.7
20260830122550 61 360 0.0 0.0 0.00 0.00 0.05 88 1003.6
20260830122049 61 360 0.0 0.0 0.00 0.00 0.05 87 1003.6
20260830121547 61 360 0.0 0.0 0.00 0.00 0.05 86 1003.9
20260830121046 62 360 0.0 0.0 0.00 0.00 0.05 87 1004.0
20260830120545 62 360 0.0 0.0 0.00 0.00 0.05 86 1004.0
20260830120044 62 360 0.9 0.0 0.00 0.00 0.05 86 1004.0
20260830115544 63 360 1.7 0.0 0.00 0.00 0.05 86 1004.0
20260830115044 63 360 1.7 0.0 0.00 0.00 0.05 86 1004.0
20260830114552 63 360 1.7 0.0 0.00 0.00 0.05 87 1004.0
20260830114044 63 360 1.7 0.0 0.00 0.00 0.05 86 1004.1
20260830113543 64 360 2.6 0.0 0.00 0.00 0.05 87 1004.1
20260830112545 64 360 4.3 0.0 0.00 0.00 0.05 87 1004.1
20260830112045 64 360 5.2 0.0 0.00 0.00 0.05 86 1004.0
20260830111546 64 360 6.1 0.0 0.00 0.00 0.05 86 1004.0
20260830111047 64 360 6.1 0.0 0.00 0.00 0.05 86 1004.0
20260830110546 64 360 7.0 0.0 0.00 0.00 0.05 86 1004.0
20260830110046 64 360 6.1 0.0 0.00 0.00 0.05 86 1004.0
20260830105546 63 360 5.2 0.0 0.00 0.00 0.05 85 1004.0
20260830105045 63 360 5.2 0.0 0.00 0.00 0.05 85 1004.0
20260830104549 63 360 6.1 0.0 0.00 0.00 0.05 85 1003.9
20260830104044 63 360 7.0 0.0 0.00 0.00 0.05 84 1004.1
20260830103544 63 360 7.0 0.0 0.00 0.00 0.05 84 1004.0
20260830102543 63 360 6.1 0.0 0.00 0.00 0.05 85 1004.1
20260830102044 63 360 5.2 0.0 0.00 0.00 0.05 85 1004.0
20260830101543 63 360 6.1 0.0 0.00 0.00 0.05 84 1004.1
20260830101043 63 360 6.1 0.0 0.00 0.00 0.05 83 1004.2
20260830100545 63 360 7.0 0.0 0.00 0.00 0.05 82 1004.1
20260830100043 64 360 7.0 0.0 0.00 0.00 0.05 81 1004.1
20260830095544 64 360 7.0 0.0 0.00 0.00 0.05 81 1004.1
20260830095043 64 360 6.1 0.0 0.00 0.00 0.05 82 1004.1
20260830094543 64 360 6.1 0.0 0.00 0.00 0.05 82 1004.1
20260830094042 64 360 7.8 0.0 0.00 0.00 0.05 82 1004.1
20260830093545 64 360 8.7 0.0 0.00 0.00 0.05 82 1004.2
20260830092543 64 360 8.7 0.0 0.00 0.00 0.05 82 1004.3
20260830092040 64 360 8.7 0.0 0.00 0.00 0.05 82 1004.5
20260830091540 64 360 10.4 0.0 0.00 0.00 0.05 82 1004.4
20260830091040 63 360 10.4 0.0 0.00 0.00 0.05 84 1004.4
20260830090540 63 360 9.6 0.0 0.00 0.00 0.05 85 1004.5
20260830090039 63 360 9.6 0.0 0.00 0.00 0.05 85 1004.5
20260830085538 63 360 10.4 0.0 0.00 0.00 0.05 85 1004.6
20260830085038 63 360 11.3 0.0 0.00 0.00 0.05 84 1004.6
20260830084542 63 360 11.3 0.0 0.00 0.00 0.05 84 1004.7
20260830084039 63 360 13.0 0.0 0.00 0.00 0.05 83 1004.7
20260830083536 63 360 12.2 0.0 0.00 0.00 0.05 83 1004.6
20260830082536 66 360 9.6 0.0 0.00 0.00 0.05 81 1004.6
20260830082035 66 360 8.7 0.0 0.00 0.00 0.05 82 1004.3
20260830081535 66 360 7.8 0.0 0.00 0.00 0.05 83 1004.5
20260830081037 65 360 7.8 0.0 0.00 0.00 0.05 83 1004.2
20260830080533 65 360 7.0 0.0 0.00 0.00 0.05 84 1004.5
20260830080033 65 360 7.0 0.0 0.00 0.00 0.05 83 1004.5
20260830075532 66 360 9.6 0.0 0.00 0.00 0.05 82 1004.3
20260830075032 67 360 10.4 0.0 0.00 0.00 0.04 81 1004.7
20260830074529 68 360 8.7 0.0 0.00 0.00 0.01 82 1004.7
20260830074031 69 360 7.0 0.0 0.00 0.00 0.00 86 1004.7
20260830073526 69 360 7.0 0.0 0.00 0.00 0.00 87 1004.6
20260830072528 68 360 7.0 0.0 0.00 0.00 0.00 85 1004.7
20260830072025 68 360 6.1 0.0 0.00 0.00 0.00 86 1004.8
20260830071525 68 360 6.1 0.0 0.00 0.00 0.00 86 1004.7
20260830071029 69 360 7.8 0.0 0.00 0.00 0.00 84 1004.8
20260830070524 69 360 7.0 0.0 0.00 0.00 0.00 81 1004.9
20260830070024 71 360 6.1 0.0 0.00 0.00 0.00 86 1005.1
20260830065523 71 360 5.2 0.0 0.00 0.00 0.00 86 1005.0
20260830065023 71 360 5.2 0.0 0.00 0.00 0.00 85 1004.9
20260830064524 71 360 5.2 0.0 0.00 0.00 0.00 85 1004.6
20260830064023 71 360 4.3 0.0 0.00 0.00 0.00 84 1004.8
20260830063522 71 360 3.5 0.0 0.00 0.00 0.00 84 1005.1
20260830062523 72 360 7.0 0.0 0.00 0.00 0.00 81 1005.1
20260830062021 73 360 7.8 0.0 0.00 0.00 0.00 79 1005.1
20260830061523 74 360 7.8 0.0 0.00 0.00 0.00 76 1005.0
20260830061021 74 360 7.8 0.0 0.00 0.00 0.00 74 1005.1
20260830060521 74 360 7.0 0.0 0.00 0.00 0.00 74 1004.9
20260830060020 74 360 7.8 0.0 0.00 0.00 0.00 73 1005.1
20260830055524 74 95 7.8 0.0 0.00 0.00 0.00 71 1005.1
20260830055020 74 103 7.8 0.0 0.00 0.00 0.00 70 1005.0
20260830054519 74 360 7.8 0.0 0.00 0.00 0.00 69 1005.0
20260830054020 74 94 7.8 0.0 0.00 0.00 0.00 67 1005.0
20260830053520 74 360 8.7 0.0 0.00 0.00 0.00 67 1005.1
20260830052519 75 360 10.4 0.0 0.00 0.00 0.00 65 1005.1
20260830052019 76 360 9.6 0.0 0.00 0.00 0.00 64 1005.0
20260830051519 76 360 8.7 0.0 0.00 0.00 0.00 63 1005.2
20260830051019 77 360 8.7 0.0 0.00 0.00 0.00 62 1005.2
20260830050518 77 360 7.8 0.0 0.00 0.00 0.00 60 1005.2
20260830050019 76 360 6.1 0.0 0.00 0.00 0.00 53 1005.2
20260830045517 76 360 5.2 0.0 0.00 0.00 0.00 49 1005.2
20260830045018 75 360 4.3 0.0 0.00 0.00 0.00 47 1005.3
20260830044518 75 360 4.3 0.0 0.00 0.00 0.00 47 1005.2
20260830044018 75 360 4.3 0.0 0.00 0.00 0.00 47 1005.2
20260830043519 76 360 4.3 0.0 0.00 0.00 0.00 46 1005.2
20260830042516 75 360 3.5 0.0 0.00 0.00 0.00 46 1005.1
20260830042020 75 360 3.5 0.0 0.00 0.00 0.00 46 1005.1
20260830041516 75 360 2.6 0.0 0.00 0.00 0.00 47 1005.1
20260830041015 75 360 1.7 0.0 0.00 0.00 0.00 47 1005.1
20260830040515 75 360 2.6 0.0 0.00 0.00 0.00 47 1004.9
20260830040015 75 360 3.5 0.0 0.00 0.00 0.00 47 1004.9
20260830035515 75 360 4.3 0.0 0.00 0.00 0.00 47 1005.0
20260830035015 76 360 3.5 0.0 0.00 0.00 0.00 46 1004.9
20260830034515 75 360 3.5 0.0 0.00 0.00 0.00 46 1004.9